CZ-6A DEB, 54504

Orbit data source: Space-Track

CZ-6A DEB, 54504 is space debris in SSO originally from a launch on Fri, 11 Nov 2022 UTC launched from the Taiyaun Space Center, China (TSC). Debris objects in space refer to the collection of defunct objects orbiting the Earth. Examples of debris include non-operational satellites, rocket bodies, and fragments generated from explosions, collisions, or faulty payload assembly.

Loading next visibility...
Identifier
54504, 2022-151JG
Orbit
SSO
Country
Flag of CNCN / PRC
Related business
Manufacturer
SAST
Mission
Spacecraft
Bus & Motor
Unknown
Mass
Unknown
Launch date (UTC)
2022-11-11 (4 years ago)
Launch vehicle
Unknown
Launch site
Taiyaun Space Center, China (TSC)
Object type
Payload
Rocket body
Debris
Shape & HBR
Unknown shape, 1.3 m
Radar Cross Section
Large (>1 m²)

Expand to show TLE details & history
Last TLE update: 1 day ago

TLE from 1 day ago
0 CZ-6A DEB
1 54504U 22151JG  26234.99557864  .00000598  00000-0  33136-3 0  9990
2 54504  98.8390 242.3152 0041035 103.8647 256.7097 14.14625819194605
Epoch: 2026-08-22T23:53Z
TLE epoch observation values (Epoch: 2026-08-22T23:53:37.994Z)
Latitude
0.00004°
Longitude
-87.3911°
Altitude
853.417 km
Speed
7.422 km/s
True Right ascension
16h 09m 15s
True Declination
0° 00' 00"
Sunlit
Object was in daylight at epoch
Visualization orbit readout
Latitude
Unknown
Longitude
Unknown
Altitude
Unknown
Speed
Unknown
Apparent Right ascension
Unknown
Apparent Declination
Unknown
Sunlit
N/A
Visualization observer readout
Local Sidereal Time
23:53:58
Azimuth
Unknown
Elevation
Unknown
Doppler factor
Unknown
Orbital elements
Apogee altitude
870.38 km
Perigee altitude
811.135 km
Semi-major axis
7,218.894 km
Eccentricity
0.0041
Inclination
98.839°
RAAN
242.3152°
Arg. of periapsis
103.8647°
True anomaly
256.25261°
Mean anomaly
256.7097°
Eccentric anomaly
256.4811°
Mean motion
3.53865 °/min
Orbital period
101.73 mins
BSTAR
0.00033136
Loading maneuver chart data...
Computing Atmospheric mass density...
Loading historical data...
Loading historical data...
Loading historical data...
Loading historical data...
Loading historical data...
Loading historical data...
Loading historical data...

Documentation

Showing up to 5 results
|